Powrót do katalogu

STARLINK-35468

AktywnyŁącznośćVLEO
NORAD 66118·PAYLOAD·🇺🇸 United States

Wystrzelony Oct 22, 2025 z Vandenberg Space Force Base

Loading…

Następne Przeloty (najbliższe 24 godziny)

TLE

ŚwieżeSource: CelesTrak SupGP

Epoka: Sep 14, 2026, 21:37 UTC

1 66118C 25237E   26257.90118056  .00045758  00000+0  13519-2 0  2579
2 66118  53.1579 239.6834 0001311  93.5249 309.6434 15.34369119    19

Śledź STARLINK-35468 w czasie rzeczywistym z AllMySat

Download on the App Store